Regional Weather Roundup
Issued by NWS

Home | Current Version | Previous Version | Graphics & Text | Print | Product List | Glossary On
Versions: 1 2 3 4 5 6 7 8 9 10 11 12 13 14 15 16 17 18 19 20 21 22 23 24 25 26 27 28 29 30 31 32 33 34 35 36 37 38 39 40 41 42 43 44 45 46 47 48 49 50
000
ASUS43 KFSD 291310
RWRSD

WEATHER ROUNDUP FOR SOUTH DAKOTA
NATIONAL WEATHER SERVICE SIOUX FALLS SD
800 AM CDT WED MAR 29 2017

NOTE: "FAIR" INDICATES FEW OR NO CLOUDS BELOW 12,000 FEET WITH NO
SIGNIFICANT WEATHER AND/OR OBSTRUCTIONS TO VISIBILITY.


SDZ001>005-009-010-012>017-291400-
NORTHWEST AND NORTH CENTRAL SOUTH DAKOTA

CITY           SKY/WX    TMP DP  RH WIND       PRES   REMARKS
BUFFALO          N/A     41  40  96 SW7       30.04S
FAITH            N/A     41  41 100 MISG      30.12S
MOBRIDGE       CLOUDY    44  39  82 CALM      30.12F
$$

SDZ012>016-024>037-041>051-057-063-072>074-291400-
SOUTHWEST AND SOUTH CENTRAL SOUTH DAKOTA

CITY           SKY/WX    TMP DP  RH WIND       PRES   REMARKS
RAPID CTY ARPT CLOUDY    38  37  97 CALM      30.11R FOG
PIERRE         CLOUDY    43  41  93 W3        30.14R FOG
CUSTER         PTCLDY    29  26  89 CALM      30.09S
ELLSWORTH AFB  FOG       39  39 100 CALM      30.11  VSB 1/2
PHILIP         CLOUDY    43  42  97 W3        30.13F
PINE RIDGE     CLOUDY    42  41  96 CALM      30.11F
SPEARFISH      FAIR      30  30 100 SE3       30.11S
WINNER         FOG       41  41 100 NW3       30.13S VSB 3/4
$$

SDZ004>011-016>023-039-040-291400-
NORTHEAST SOUTH DAKOTA

CITY           SKY/WX    TMP DP  RH WIND       PRES   REMARKS
ABERDEEN       CLOUDY    36  32  85 N3        30.16S
WATERTOWN      CLOUDY    37  34  89 CALM      30.15S
BROOKINGS      CLOUDY    42  36  79 E5        30.15S
SISSETON         N/A     35  34  96 CALM      30.17R
$$

SDZ017-020-022-023-036>040-048>070-291400-
SOUTHEAST SOUTH DAKOTA

CITY           SKY/WX    TMP DP  RH WIND       PRES   REMARKS
SIOUX FALLS    CLOUDY    42  39  89 NE5       30.14S
HURON          CLOUDY    41  37  86 NE3       30.14S
CHAMBERLAIN    CLOUDY    42  42  99 NW5       30.12F
MITCHELL       CLOUDY    42  37  82 NE5       30.14R
YANKTON        CLOUDY    45  39  81 NE8       30.11S
$$

ABBREVIATIONS USED IN REMARKS
   TC - TEMPERATURE IN CELSIUS
  WCI - WIND CHILL INDEX
   HX - HEAT INDEX
  VSB - VISIBILITY




USA.gov is the U.S. government's official web portal to all federal, state and local government web resources and services.